CDT,Max TemperatureF,Mean TemperatureF,Min TemperatureF,Max Dew PointF,MeanDew PointF,Min DewpointF,Max Humidity, Mean Humidity, Min Humidity, Max Sea Level PressureIn, Mean Sea Level PressureIn, Min Sea Level PressureIn, Max VisibilityMiles, Mean VisibilityMiles, Min VisibilityMiles, Max Wind SpeedMPH, Mean Wind SpeedMPH, Max Gust SpeedMPH,PrecipitationIn, CloudCover, Events, WindDirDegrees
2012-10-1,63,58,53,58,52,48,99,82,65,29.88,29.79,29.72,10,10,10,13,7,17,0.09,4,Rain,6
2012-10-2,59,58,56,60,58,56,100,99,95,29.89,29.78,29.70,10,6,2,13,8,20,0.03,8,Rain,348
2012-10-3,78,67,57,60,56,51,100,75,39,30.11,30.02,29.89,10,9,2,16,7,18,0.00,5,Thunderstorm,178
2012-10-4,83,70,57,59,56,54,99,68,37,30.19,30.15,30.11,10,10,10,16,8,23,0.00,1,,188
2012-10-5,59,52,42,54,48,43,100,90,73,30.20,30.16,30.10,10,9,3,17,7,22,1.06,6,Rain-Thunderstorm,322
2012-10-6,55,46,36,42,37,34,100,75,46,30.23,30.20,30.16,10,10,10,12,6,16,0.01,2,,284
2012-10-7,54,44,35,38,35,31,100,69,41,30.25,30.22,30.19,10,10,10,12,5,20,0.00,4,,289
2012-10-8,61,46,31,42,34,29,100,73,32,30.27,30.20,30.13,10,9,1,9,1,,0.00,0,,185
2012-10-9,67,52,37,46,41,36,100,69,41,30.14,30.05,29.96,10,10,7,18,5,24,0.00,0,,176
2012-10-10,57,46,34,47,37,27,100,66,33,30.27,30.17,29.95,10,10,10,18,10,26,0.00,2,,288
2012-10-11,64,48,33,45,36,32,100,68,32,30.30,30.25,30.18,10,10,10,14,3,20,0.00,0,,178
2012-10-12,66,56,45,48,46,43,99,76,48,30.38,30.30,30.21,10,8,0,16,5,18,0.00,1,,43
2012-10-13,77,62,47,65,56,44,95,77,66,30.28,30.11,29.93,10,9,2,20,8,24,0.00,4,,149
2012-10-14,75,64,53,67,60,48,93,73,55,29.92,29.80,29.69,10,10,10,31,18,41,0.01,5,Rain,197
2012-10-15,66,54,41,51,43,37,100,72,35,30.01,29.97,29.90,10,10,7,15,7,25,0.00,0,,267
2012-10-16,74,56,37,55,48,38,100,70,41,30.01,29.85,29.72,10,10,2,18,6,25,0.00,0,,142
2012-10-17,73,64,55,60,53,48,100,70,45,29.75,29.62,29.42,10,10,5,23,12,30,0.50,4,Rain-Thunderstorm,159
2012-10-18,64,56,49,59,43,30,100,63,28,29.65,29.60,29.47,10,10,7,28,13,34,0.03,3,Rain,212
2012-10-19,55,52,49,51,46,39,98,84,54,29.76,29.64,29.55,10,9,3,18,10,24,0.07,8,Rain,221
2012-10-20,56,50,44,49,46,45,100,82,65,30.00,29.89,29.76,10,10,2,16,9,22,0.00,7,,229
2012-10-21,75,58,40,57,50,40,100,76,44,30.06,30.02,29.98,10,8,1,14,4,18,0.00,2,,124
2012-10-22,77,71,66,64,57,53,87,63,52,30.07,30.02,29.89,10,10,10,32,9,41,0.04,4,Rain-Thunderstorm,168
2012-10-23,76,68,61,67,58,52,95,72,50,30.04,30.00,29.96,10,10,5,15,8,20,0.06,6,Rain-Thunderstorm,165
2012-10-24,80,69,58,64,59,54,85,72,55,30.07,30.02,29.97,10,10,10,16,8,20,0.00,1,,157
2012-10-25,80,66,50,62,58,46,87,71,51,30.08,29.94,29.87,10,10,10,24,11,30,0.00,2,Rain,163
2012-10-26,50,46,41,47,39,35,100,78,60,30.29,30.22,30.09,10,10,4,20,13,26,0.43,5,Rain,330
2012-10-27,55,46,36,37,36,34,91,70,47,30.25,30.21,30.16,10,10,10,17,10,24,0.00,0,,339
2012-10-28,54,46,38,37,34,32,88,69,43,30.21,30.19,30.15,10,10,7,17,10,26,0.00,1,,338
2012-10-29,56,46,36,37,33,30,89,65,42,30.23,30.16,30.01,10,10,10,22,11,31,0.00,1,,317
2012-10-30,50,45,40,32,30,28,69,58,46,30.00,29.85,29.79,10,10,10,26,17,32,0.00,2,,303
2012-10-31,51,42,33,34,31,28,84,66,50,29.93,29.88,29.82,10,10,10,18,10,28,0.00,0,,270